STARLINK-31692 (59577 NORAD) Tracking and Keplerian Element Data

This shows tracking and keplerian element data for the satellite.

Feedback or suggestion? Click here.




ElementValue
Catalog59577
NameSTARLINK-31692
Epoch Orbit830
Epoch Day160.08090668
Epoch Year2024
RAAN53.9936
Inclination43.0003
Eccentricity0.0001178
Argument of Perigee279.7817
Mean Anonmoly80.2906
Mean Motion15.4070553
Decay Rate2.649E-05
L11 59577U 24076P 24160.08090668 .00002649 00000+0 70644-4 0 9997
L22 59577 43.0003 53.9936 0001178 279.7817 80.2906 15.40705530 8304



Live tracking and technical data element details for STARLINK-31692 (NORAD 59577). STARLINK-31692 can be tracked NOW for your location showing map with azimuth and elevation plus other details from your city location.







IsCatalogInMostPopularTable: catalog: 59577, numindb: 11
Update: records affected: 1



GetName: 59577 STARLINK-31692

Hit Count: updated at: Fri, 14 Jun 2024 19:24:20 GMT